Regional Weather Roundup
Issued by NWS Charleston, WV

Home | Current Version | Previous Version | Graphics & Text | Print | Product List | Glossary On
Versions: 1 2 3 4 5 6 7 8 9 10 11 12 13 14 15 16 17 18 19 20 21 22 23 24 25 26 27 28 29 30 31 32 33 34 35 36 37 38 39 40 41 42 43 44 45 46 47 48 49 50
000
ASUS41 KRLX 210110
RWRRLX
West Virginia Regional Weather Roundup
National Weather Service Charleston WV
900 PM EDT MON OCT 20 2014

Note: "fair" indicates few or no clouds below 12,000 feet with no
significant weather and/or obstructions to visibility.

WVZ003-210200-
Northern Panhandle of West Virginia

CITY           SKY/WX    TMP DP  RH WIND       PRES   REMARKS
WHEELING       LGT RAIN  51  45  79 S8        29.89S
$$

WVZ009-210200-
Northwest West Virginia

CITY           SKY/WX    TMP DP  RH WIND       PRES   REMARKS
PARKERSBURG    MOCLDY    51  49  92 CALM      29.93F
$$

WVZ006-210200-
Western West Virginia

CITY           SKY/WX    TMP DP  RH WIND       PRES   REMARKS
HUNTINGTON     MOCLDY    53  48  83 S6        29.92S
$$

WVZ015-210200-
West Central West Virginia

CITY           SKY/WX    TMP DP  RH WIND       PRES   REMARKS
CHARLESTON     CLOUDY    53  50  89 CALM      29.93S
$$

WVZ022-031-210200-
North Central West Virginia

CITY           SKY/WX    TMP DP  RH WIND       PRES   REMARKS
CLARKSBURG     LGT RAIN  53  46  77 S5        29.92F
MORGANTOWN     CLOUDY    56  43  61 S5        29.92F
$$

WVZ025-035-042-045-210200-
Southern West Virginia

CITY           SKY/WX    TMP DP  RH WIND       PRES   REMARKS
BECKLEY        MOCLDY    52  43  71 SW8       29.96F
LOGAN          CLOUDY    54  48  82 CALM      29.95R
BLUEFIELD      MOCLDY    52  41  66 W6        29.99S
LEWISBURG      MOCLDY    50  44  78 CALM      29.97S
$$

WVZ047-210200-
Northern Mountains of West Virginia

CITY           SKY/WX    TMP DP  RH WIND       PRES   REMARKS
ELKINS         CLOUDY    47  47 100 CALM      29.95S
$$

WVZ052-210200-
Eastern Panhandle of West Virginia

CITY           SKY/WX    TMP DP  RH WIND       PRES   REMARKS
MARTINSBURG    CLOUDY    55  48  77 W5        29.94F
PETERSBURG     CLOUDY   N/A N/A N/A CALM      29.95R
$$


USA.gov is the U.S. government's official web portal to all federal, state and local government web resources and services.